Arctic - Eastern Arctic: Past 24 Hour Conditions

 

Gjoa Haven Airport

09:00 PM MDT 30 September 2014
This table is a summary of hourly weather conditions for the past 24 hours.
Date / Time
(MDT)
Wind(knots) Conditions Visibility(km) Pressure(kPa) Air tempC) Relative humidity(%) Dew pointC) Wind Chill
30 September 2014
21:00 NNW 10 gust 16 Cloudy 16 102.4 -8 93 -9 -15
20:00 NW 10 gust 17 Cloudy 16 102.3 -8 93 -9 -15
19:00 NNW 12 Cloudy 16 102.3 -8 91 -9 -16
18:00 NW 13 Cloudy 24 102.3 -8 89 -9 -16
17:00 NNW 11 Cloudy 24 102.3 -7 87 -9 -15
16:00 NNW 11 Cloudy 24 102.3 -7 88 -9 -15
15:00 NNW 11 Cloudy 24 102.3 -7 89 -9 -15
14:00 NW 11 Cloudy 24 102.3 -7 89 -9 -15
13:00 NNW 10 Light Snow 24 102.4 -7 89 -9 -14
12:00 NNW 10 Light Snow 24 102.4 -7 89 -9 -14
11:00 NW 10 Cloudy 24 102.4 -7 93 -8 -14
10:00 NNW 13 Cloudy 24 102.3 -8 92 -9 -15
9:00 N 15 Cloudy 24 102.3 -8 92 -9 -16
8:00 NNW 13 Cloudy 24 102.3 -8 92 -9 -16
7:00 NW 12 Cloudy 24 102.4 -8 90 -10 -16
6:00 NNW 14 gust 19 Light Snow 16 102.3 -8 91 -9 -16
5:00 NNW 14 Light Snow 16 102.4 -8 90 -9 -16
4:00 NNW 16 Light Snow 16 102.4 -7 88 -9 -16
3:00 NNW 16 Light Snow 16 102.4 -7 87 -9 -16
2:00 NNW 13 Light Snow 16 102.4 -7 86 -9 -15
1:00 NNW 14 Light Snow 16 102.4 -7 89 -9 -15
0:00 NNW 16 gust 21 Light Snow 15 102.3 -7 91 -8 -16
29 September 2014
23:00 NNW 16 Light Snow 16 102.3 -7 91 -8 -16
22:00 NNW 15 gust 21 Light Snow 8 102.3 -7 92 -8 -16
21:00 NNW 16 Light Snow 16 102.3 -7 90 -8 -16
 
Map of Arctic - Eastern Arctic marine weather areas Baker Lake Airport Chesterfield Inlet Airport Coral Harbour Airport Gjoa Haven Airport Kugaaruk Airport Rankin Inlet Airport Shepherd Bay Airport Whale Cove Airport Arctic Bay Brevoort Island Qikiqtarjuaq Airport Cape Dorset Airport Cape Dyer Cape Hooper Clyde Airport Grise Fiord Airport Hall Beach Airport Igloolik Airport Iqaluit Airport Longstaff Bluff Pangnirtung Airport Pond Inlet Airport Repulse Bay Airport Resolute Airport Resolution Island Rowley Island Airport Taloyoak Airport Wager Bay Akulivik Airport Ivujivik Airport Puvirnituq Airport Kangiqsujuaq Airport Kangirsuk Airport Quaqtaq Airport Tasiujaq Airport Cape Kakkiviak Cape Kiglapait Nain Airport Saglek Cape Mercy Kimmirut Airport Aupaluk Airport Salluit Airport Kangiqsualujjuaq Airport Fort Ross
Legend: buoyBuoy land stationLand Station